NIMBUS 2 DEB, 49249

Orbit data source: Space-Track

NIMBUS 2 DEB, 49249 is space debris in SSO originally from a launch on Sun, 15 May 1966 UTC launched from the Air Force Western Test Range (AFWTR). Debris objects in space refer to the collection of defunct objects orbiting the Earth. Examples of debris include non-operational satellites, rocket bodies, and fragments generated from explosions, collisions, or faulty payload assembly.

Loading next visibility...
Identifier
49249, 1966-040BX
Orbit
SSO
Country
Flag of USUS
Related business
Manufacturer
Unknown
Mission
Spacecraft
Bus & Motor
Unknown
Mass
Unknown
Launch date (UTC)
1966-05-15 (60 years ago)
Launch vehicle
Unknown
Launch site
Air Force Western Test Range (AFWTR)
Object type
Payload
Rocket body
Debris
Shape & HBR
Unknown shape, 0.1 m
Radar Cross Section
Small (<0.1 m²)

Expand to show TLE details & history
Last TLE update: 3 days ago

TLE from 3 days ago
0 NIMBUS 2 DEB
1 49249U 66040BX  26170.01893119  .00001447  00000-0  26657-2 0  9996
2 49249 100.4500  24.4120 0043705 262.0775  97.5390 13.41578448239485
Epoch: 2026-06-19T00:27Z
TLE epoch observation values (Epoch: 2026-06-19T00:27:15.654Z)
Latitude
-0.00006°
Longitude
110.34286°
Altitude
1,110.584 km
Speed
7.295 km/s
True Right ascension
01h 37m 38s
True Declination
0° 00' 00"
Sunlit
Object was in daylight at epoch
Visualization orbit readout
Latitude
Unknown
Longitude
Unknown
Altitude
Unknown
Speed
Unknown
Apparent Right ascension
Unknown
Apparent Declination
Unknown
Sunlit
N/A
Visualization observer readout
Local Sidereal Time
21:36:07
Azimuth
Unknown
Elevation
Unknown
Doppler factor
Unknown
Orbital elements
Apogee altitude
1,133.444 km
Perigee altitude
1,068.071 km
Semi-major axis
7,478.894 km
Eccentricity
0.00437
Inclination
100.45°
RAAN
24.412°
Arg. of periapsis
262.0775°
True anomaly
98.03513°
Mean anomaly
97.539°
Eccentric anomaly
97.7871°
Mean motion
3.35573 °/min
Orbital period
107.28 mins
BSTAR
0.0026657
Loading maneuver chart data...
Computing Atmospheric mass density...
Loading historical data...
Loading historical data...
Loading historical data...
Loading historical data...
Loading historical data...
Loading historical data...
Loading historical data...

Documentation

Showing up to 5 results
|